Location: *
(30.4476°N, 114.3798°E)
Time: 03:41:46
(UTC+00:00)

SL-08 RB Rocket - Pass Details

Date: 09 April 2020
Orbit: 646 x 685 km, 97.8° (Epoch: 31 May)

Event Time Altitude Azimuth Distance (km) Brightness Sun altitude
Exits shadow 12:23:50 44° 153° (SSE) 914 4.0 -20.9°
Maximum altitude 12:25:14 77° 77° (ENE) 686 3.6 -21.2°
Drops below altitude 10° 12:29:50 10° 352° (N) 2,102 6.7 -22.1°
Sets 12:32:05 0° 351° (N) 3,025 7.6 -22.6°
